SCOUT B DEB, 3392

Orbit data source: Space-Track

SCOUT B DEB, 3392 is space debris in LEO originally from a launch on Thu, 08 Aug 1968 UTC launched from the Air Force Western Test Range (AFWTR). Debris objects in space refer to the collection of defunct objects orbiting the Earth. Examples of debris include non-operational satellites, rocket bodies, and fragments generated from explosions, collisions, or faulty payload assembly.

Loading next visibility...
Identifier
3392, 1968-066H
Orbit
LEO
Country
Flag of USUS
Related business
Manufacturer
Unknown
Mission
Spacecraft
Bus & Motor
Unknown
Mass
Unknown
Launch date (UTC)
1968-08-08 (58 years ago)
Launch vehicle
Unknown
Launch site
Air Force Western Test Range (AFWTR)
Object type
Payload
Rocket body
Debris
Shape & HBR
Unknown shape, 0.1 m
Radar Cross Section
Small (<0.1 m²)

Expand to show TLE details & history
Last TLE update: 6 hours ago

TLE from 6 hours ago
0 SCOUT B DEB
1  3392U 68066H   26104.77803161  .00003036  00000-0  89154-3 0  9991
2  3392  80.6643 288.4537 0326274  15.1079 345.9557 14.16940210724380
Epoch: 2026-04-14T18:40Z
TLE epoch observation values (Epoch: 2026-04-14T18:40:21.931Z)
Latitude
0.00004°
Longitude
165.41292°
Altitude
610.707 km
Speed
7.672 km/s
True Right ascension
19h 13m 48s
True Declination
0° 00' 00"
Sunlit
Object was in daylight at epoch
Visualization orbit readout
Latitude
Unknown
Longitude
Unknown
Altitude
Unknown
Speed
Unknown
Apparent Right ascension
Unknown
Apparent Declination
Unknown
Sunlit
N/A
Visualization observer readout
Local Sidereal Time
07:03:49
Azimuth
Unknown
Elevation
Unknown
Doppler factor
Unknown
Orbital elements
Apogee altitude
1,068.186 km
Perigee altitude
597.631 km
Semi-major axis
7,211.046 km
Eccentricity
0.03263
Inclination
80.6643°
RAAN
288.4537°
Arg. of periapsis
15.1079°
True anomaly
345.01112°
Mean anomaly
345.9557°
Eccentric anomaly
345.48723°
Mean motion
3.54443 °/min
Orbital period
101.57 mins
BSTAR
0.00089154
Loading maneuver chart data...
Computing Atmospheric mass density...
Loading historical data...
Loading historical data...
Loading historical data...
Loading historical data...
Loading historical data...
Loading historical data...
Loading historical data...

Documentation

Showing up to 5 results
|